Weather History for KDHT - January, 2012

Change the Weather History Date:

Wednesday, January 11, 2012

  Actual Average Record
Temperature  
Mean Temperature 30 °F 34 °F  
Max Temperature 39 °F 50 °F 71 °F (1995)
Min Temperature 21 °F 19 °F -13 °F (1962)
Degree Days  
Heating Degree Days 35 31  
Month to date heating degree days 287 341  
Since 1 July heating degree days 2163 2284  
Cooling Degree Days 0 0  
Month to date cooling degree days 0 0  
Year to date cooling degree days 0 0  
Moisture  
Dew Point 23 °F    
Average Humidity 65    
Maximum Humidity 75    
Minimum Humidity 54    
Precipitation  
Precipitation 0.00 in 0.02 in 0.21 in (1963)
Month to date precipitation 0.00 0.16  
Year to date precipitation 0.00 0.16  
Snow  
Snow 0.00 in 0.10 in 2.50 in (1997)
Month to date snowfall 0.0 1.4  
Since 1 July snowfall 8.3 7.6  
Snow Depth 0.00 in    
Sea Level Pressure  
Sea Level Pressure 29.93 in    
Wind  
Wind Speed 20 mph (North)    
Max Wind Speed 40 mph    
Max Gust Speed 48 mph    
Visibility 10 miles    
Events      
T = Trace of Precipitation, MM = Missing Value Source: NWS Daily Summary

Daily Weather History Graph

Daily Weather History Graph

Search for Another Location

Airport or City:

Trip Planner

Search our weather history database for the weather conditions in past years. The results will help you decide how hot, cold, wet, or windy it might be!

Date:

Astronomy

Jan. 11, 2012 Rise Set
Actual Time 8:01 AM CST 5:55 PM CST
Civil Twilight 7:32 AM CST 6:23 PM CST
Nautical Twilight 7:01 AM CST 6:55 PM CST
Astronomical Twilight 6:30 AM CST 7:25 PM CST
Moon 8:49 PM CST (1/11) 9:19 AM CST (1/11)
Length of Visible Light 10h 50m
Length of Day
9h 54m
Waning Gibbous, 93% of the Moon is Illuminated
Jan 11
Waning Gibbous
Jan 16
Last Quarter
Jan 23
New
Jan 30
First Quarter
Feb 7
Full

Hourly Weather History & Observations

Time (CST) Temp. Windchill Dew Point Humidity Pressure Visibility Wind Dir Wind Speed Gust Speed Precip Events Conditions
12:53 AM 33.1 °F - 25.0 °F 72% 29.72 in 10.0 mi Calm Calm - N/A   Clear
1:53 AM 33.1 °F 27.7 °F 25.0 °F 72% 29.70 in 10.0 mi WNW 5.8 mph - N/A   Clear
2:53 AM 35.1 °F 27.9 °F 27.0 °F 72% 29.67 in 10.0 mi WNW 9.2 mph - N/A   Clear
3:53 AM 32.0 °F 23.0 °F 25.0 °F 75% 29.66 in 10.0 mi NNW 11.5 mph - N/A   Clear
4:53 AM 33.8 °F 27.0 °F 26.6 °F 75% 29.69 in 10.0 mi WNW 8.1 mph - N/A   Clear
5:53 AM 35.1 °F 28.6 °F 25.0 °F 67% 29.67 in 10.0 mi North 8.1 mph - N/A   Clear
6:53 AM 37.0 °F 28.1 °F 25.0 °F 62% 29.75 in 10.0 mi North 15.0 mph - N/A   Clear
7:53 AM 39.0 °F 29.9 °F 26.1 °F 60% 29.77 in 10.0 mi North 17.3 mph - N/A   Clear
8:53 AM 37.9 °F 26.6 °F 26.1 °F 62% 29.83 in 10.0 mi North 25.3 mph - N/A   Clear
9:53 AM 37.9 °F 25.9 °F 28.0 °F 68% 29.88 in 10.0 mi North 28.8 mph 40.3 mph N/A   Clear
10:23 AM 37.4 °F 24.8 °F 28.4 °F 70% 29.91 in 10.0 mi North 31.1 mph 43.7 mph N/A   Mostly Cloudy
10:53 AM 39.0 °F 27.4 °F 30.0 °F 70% 29.92 in 10.0 mi North 28.8 mph 43.7 mph N/A   Overcast
11:53 AM 39.0 °F 27.4 °F 30.0 °F 70% 29.95 in 10.0 mi North 28.8 mph 40.3 mph N/A   Overcast
12:53 PM 37.9 °F 25.7 °F 28.0 °F 68% 29.95 in 10.0 mi North 29.9 mph 39.1 mph N/A   Overcast
1:46 PM 37.4 °F 25.0 °F 21.2 °F 52% 29.95 in 10.0 mi North 29.9 mph 43.7 mph N/A   Overcast
1:53 PM 37.9 °F 24.7 °F 23.0 °F 55% 29.95 in 10.0 mi North 35.7 mph 43.7 mph N/A   Overcast
2:11 PM 35.6 °F 21.5 °F 23.0 °F 60% 29.95 in 10.0 mi North 35.7 mph 43.7 mph N/A   Overcast
2:44 PM 35.6 °F 21.9 °F 21.2 °F 56% 29.96 in 10.0 mi North 33.4 mph 46.0 mph N/A   Overcast
2:53 PM 35.6 °F 21.3 °F 23.0 °F 60% 29.97 in 10.0 mi North 36.8 mph 46.0 mph N/A   Overcast
3:39 PM 33.8 °F 19.6 °F 21.2 °F 60% 29.98 in 10.0 mi North 32.2 mph 43.7 mph N/A   Overcast
3:53 PM 33.1 °F 19.3 °F 23.0 °F 66% 30.01 in 10.0 mi North 28.8 mph 36.8 mph N/A   Overcast
4:53 PM 33.8 °F 19.6 °F 19.4 °F 56% 30.01 in 10.0 mi North 32.2 mph 41.4 mph N/A   Scattered Clouds
5:53 PM 30.9 °F 17.8 °F 19.0 °F 61% 30.07 in 10.0 mi North 23.0 mph 31.1 mph N/A   Clear
6:53 PM 30.9 °F 16.2 °F 19.9 °F 64% 30.10 in 10.0 mi North 29.9 mph 35.7 mph N/A   Mostly Cloudy
7:53 PM 27.0 °F 11.9 °F 19.0 °F 72% 30.14 in 10.0 mi North 25.3 mph 31.1 mph N/A   Scattered Clouds
8:53 PM 25.0 °F 11.7 °F 17.1 °F 72% 30.18 in 10.0 mi North 17.3 mph - N/A   Clear
9:53 PM 24.1 °F 10.1 °F 14.0 °F 65% 30.20 in 10.0 mi North 18.4 mph - N/A   Clear
10:53 PM 21.9 °F 9.8 °F 10.9 °F 63% 30.23 in 10.0 mi North 12.7 mph - N/A   Clear
11:53 PM 21.0 °F 11.4 °F 10.0 °F 63% 30.26 in 10.0 mi North 8.1 mph - N/A   Clear